Location: Wien
(48.2082°N, 16.3738°E)
Time: 20:04:36
(UTC+02:00)

MOZHAYETS 4 - Pass Details

Date: 31 March 2019
Orbit: 663 x 679 km, 98.0° (Epoch: 24 April)

Event Time Altitude Azimuth Distance (km) Brightness Sun altitude
Exits shadow 00:19:05 13° 44° (NE) 1,928 10.5 -37.7°
Drops below altitude 10° 00:20:25 10° 28° (NNE) 2,118 10.9 -37.6°
Sets 00:23:45 0° 2° (N) 3,042 12.1 -37.6°
